Weather History for PAII - February, 2014

Change the Weather History Date:

Saturday, February 22, 2014

  Actual Average (PAKN) Record (PAKN)
Temperature  
Mean Temperature 42 °F 20 °F  
Max Temperature 44 °F 28 °F 49 °F (2015)
Min Temperature 39 °F 12 °F -25 °F (1990)
Degree Days  
Heating Degree Days 24 45  
Month to date heating degree days 1026  
Since 1 July heating degree days 7352  
Cooling Degree Days 0    
Month to date cooling degree days  
Year to date cooling degree days  
Moisture  
Dew Point 34 °F    
Average Humidity 76    
Maximum Humidity 81    
Minimum Humidity 66    
Precipitation  
Precipitation 0.00 in 0.03 in 0.35 in (1981)
Month to date precipitation 0.61  
Year to date precipitation 1.63  
Snow  
Snow 0.00 in 0.20 in 4.90 in (1981)
Month to date snowfall 4.7  
Since 1 July snowfall 34.2  
Snow Depth -    
Sea Level Pressure  
Sea Level Pressure 29.66 in    
Wind  
Wind Speed 25 mph (ESE)    
Max Wind Speed 34 mph    
Max Gust Speed 44 mph    
Visibility 10 miles    
Events      
T = Trace of Precipitation, MM = Missing Value Source: NWS Daily Summary

Daily Weather History Graph

Daily Weather History Graph

Search for Another Location

Airport or City:

Trip Planner

Search our weather history database for the weather conditions in past years. The results will help you decide how hot, cold, wet, or windy it might be!

Date:

Astronomy

Feb. 22, 2014 Rise Set
Actual Time 8:42 AM AKST 6:44 PM AKST
Civil Twilight 8:02 AM AKST 7:24 PM AKST
Nautical Twilight 7:16 AM AKST 8:10 PM AKST
Astronomical Twilight 6:30 AM AKST 8:56 PM AKST
Moon 3:25 AM AKST (2/22) 11:26 AM AKST (2/22)
Length of Visible Light 11h 22m
Length of Day
10h 01m
Waning Gibbous, 48% of the Moon is Illuminated
Feb 22
Waning Gibbous
Feb 28
New
Mar 8
First Quarter
Mar 16
Full
Mar 23
Last Quarter

Hourly Weather History & Observations

Time (AKST) Temp. Windchill Dew Point Humidity Pressure Visibility Wind Dir Wind Speed Gust Speed Precip Events Conditions
12:16 AM 39.2 °F 27.8 °F 33.8 °F 81% 29.73 in 10.0 mi ESE 27.6 mph 43.7 mph N/A   Clear
12:36 AM 39.2 °F 27.6 °F 33.8 °F 81% 29.73 in 10.0 mi ESE 28.8 mph 38.0 mph N/A   Partly Cloudy
12:56 AM 39.2 °F 27.8 °F 33.8 °F 81% 29.75 in 10.0 mi ESE 27.6 mph 33.4 mph N/A   Mostly Cloudy
1:16 AM 39.2 °F 27.6 °F 33.8 °F 81% 29.73 in 10.0 mi ESE 28.8 mph 38.0 mph N/A   Mostly Cloudy
1:36 AM 39.2 °F 28.3 °F 33.8 °F 81% 29.72 in 10.0 mi ESE 25.3 mph 38.0 mph N/A   Partly Cloudy
1:56 AM 39.2 °F 28.3 °F 33.8 °F 81% 29.73 in 10.0 mi ESE 25.3 mph 35.7 mph N/A   Clear
2:16 AM 39.2 °F 28.5 °F 33.8 °F 81% 29.73 in 10.0 mi ESE 24.2 mph 35.7 mph N/A   Clear
2:36 AM 39.2 °F 28.7 °F 33.8 °F 81% 29.73 in 10.0 mi ESE 23.0 mph 32.2 mph N/A   Clear
2:56 AM 39.2 °F 26.6 °F 33.8 °F 81% 29.72 in 10.0 mi ESE 34.5 mph 39.1 mph N/A   Clear
3:16 AM 39.2 °F 27.0 °F 33.8 °F 81% 29.73 in 10.0 mi ESE 32.2 mph 38.0 mph N/A   Clear
3:36 AM 39.2 °F 28.3 °F 33.8 °F 81% 29.73 in 10.0 mi ESE 25.3 mph 39.1 mph N/A   Scattered Clouds
3:56 AM 39.2 °F 28.5 °F 33.8 °F 81% 29.72 in 10.0 mi ESE 24.2 mph 35.7 mph N/A   Mostly Cloudy
4:16 AM 39.2 °F 28.7 °F 33.8 °F 81% 29.72 in 10.0 mi ESE 23.0 mph 34.5 mph N/A   Mostly Cloudy
4:36 AM 39.2 °F 27.6 °F 33.8 °F 81% 29.71 in 10.0 mi ESE 28.8 mph 42.6 mph N/A   Scattered Clouds
4:56 AM 39.2 °F 28.7 °F 33.8 °F 81% 29.73 in 10.0 mi East 23.0 mph 32.2 mph N/A   Mostly Cloudy
5:16 AM 39.2 °F 29.6 °F 33.8 °F 81% 29.75 in 10.0 mi East 19.6 mph 32.2 mph N/A   Overcast
5:36 AM 39.2 °F 29.8 °F 33.8 °F 81% 29.74 in 10.0 mi East 18.4 mph 26.5 mph N/A   Overcast
5:56 AM 39.2 °F 29.6 °F 33.8 °F 81% 29.74 in 10.0 mi East 19.6 mph 25.3 mph N/A   Overcast
6:16 AM 39.2 °F 29.3 °F 33.8 °F 81% 29.74 in 10.0 mi ESE 20.7 mph 27.6 mph N/A   Overcast
6:36 AM 41.0 °F 31.4 °F 35.6 °F 81% 29.73 in 10.0 mi ESE 21.9 mph 27.6 mph N/A   Overcast
6:56 AM 41.0 °F 30.9 °F 33.8 °F 76% 29.72 in 10.0 mi ESE 24.2 mph 32.2 mph N/A   Mostly Cloudy
7:16 AM 41.0 °F 29.7 °F 35.6 °F 81% 29.72 in 10.0 mi ESE 31.1 mph 42.6 mph N/A   Overcast
7:36 AM 41.0 °F 30.2 °F 33.8 °F 76% 29.73 in 10.0 mi ESE 27.6 mph 38.0 mph N/A   Overcast
7:56 AM 41.0 °F 30.7 °F 33.8 °F 76% 29.74 in 10.0 mi ESE 25.3 mph 38.0 mph N/A   Overcast
8:16 AM 39.2 °F 28.0 °F 33.8 °F 81% 29.73 in 10.0 mi ESE 26.5 mph 38.0 mph N/A   Overcast
8:36 AM 39.2 °F 27.6 °F 33.8 °F 81% 29.71 in 10.0 mi ESE 28.8 mph 38.0 mph N/A   Partly Cloudy
8:56 AM 39.2 °F 27.6 °F 33.8 °F 81% 29.73 in 10.0 mi ESE 28.8 mph 35.7 mph N/A   Clear
9:16 AM 41.0 °F 30.2 °F 33.8 °F 76% 29.73 in 10.0 mi ESE 27.6 mph 33.4 mph N/A   Partly Cloudy
9:36 AM 41.0 °F 30.0 °F 33.8 °F 76% 29.72 in 10.0 mi ESE 28.8 mph 39.1 mph N/A   Clear
9:56 AM 41.0 °F 29.8 °F 33.8 °F 76% 29.70 in 10.0 mi ESE 29.9 mph 40.3 mph N/A   Clear
10:16 AM 41.0 °F 30.5 °F 33.8 °F 76% 29.71 in 10.0 mi ESE 26.5 mph 40.3 mph N/A   Clear
10:36 AM 41.0 °F 30.0 °F 33.8 °F 76% 29.70 in 10.0 mi ESE 28.8 mph 39.1 mph N/A   Mostly Cloudy
10:56 AM 41.0 °F 29.7 °F 33.8 °F 76% 29.70 in 10.0 mi ESE 31.1 mph 39.1 mph N/A   Mostly Cloudy
11:16 AM 42.8 °F 32.3 °F 33.8 °F 70% 29.71 in 10.0 mi ESE 29.9 mph 36.8 mph N/A   Clear
11:36 AM 42.8 °F 32.9 °F 35.6 °F 76% 29.71 in 10.0 mi ESE 26.5 mph 33.4 mph N/A   Mostly Cloudy
11:56 AM 42.8 °F 34.3 °F 35.6 °F 76% 29.71 in 10.0 mi ESE 19.6 mph 28.8 mph N/A   Mostly Cloudy
12:16 PM 44.6 °F 36.6 °F 35.6 °F 71% 29.70 in 10.0 mi ESE 19.6 mph 27.6 mph N/A   Mostly Cloudy
12:36 PM 44.6 °F 35.3 °F 35.6 °F 71% 29.66 in 10.0 mi ESE 26.5 mph 34.5 mph N/A   Scattered Clouds
12:56 PM 44.6 °F 34.2 °F 35.6 °F 71% 29.64 in 10.0 mi East 33.4 mph 43.7 mph N/A   Clear
1:16 PM 44.6 °F 34.6 °F 35.6 °F 71% 29.64 in 10.0 mi East 31.1 mph 41.4 mph N/A   Partly Cloudy
1:36 PM 44.6 °F 35.9 °F 35.6 °F 71% 29.65 in 10.0 mi East 23.0 mph 33.4 mph N/A   Mostly Cloudy
1:56 PM 44.6 °F 35.5 °F 35.6 °F 71% 29.65 in 10.0 mi ESE 25.3 mph 31.1 mph N/A   Overcast
2:16 PM 44.6 °F 35.3 °F 35.6 °F 71% 29.64 in 10.0 mi ESE 26.5 mph 36.8 mph N/A   Overcast
2:36 PM 44.6 °F 36.9 °F 35.6 °F 71% 29.65 in 10.0 mi ESE 18.4 mph - N/A   Overcast
2:56 PM 44.6 °F 36.9 °F 35.6 °F 71% 29.64 in 10.0 mi ESE 18.4 mph 24.2 mph N/A   Overcast
3:16 PM 44.6 °F 37.8 °F 35.6 °F 71% 29.63 in 10.0 mi ESE 15.0 mph 21.9 mph N/A   Overcast
3:36 PM 44.6 °F 36.9 °F 35.6 °F 71% 29.62 in 10.0 mi East 18.4 mph 24.2 mph N/A   Overcast
3:56 PM 44.6 °F 36.9 °F 35.6 °F 71% 29.62 in 10.0 mi East 18.4 mph 25.3 mph N/A   Overcast
4:16 PM 44.6 °F 36.6 °F 35.6 °F 71% 29.61 in 10.0 mi East 19.6 mph 25.3 mph N/A   Overcast
4:36 PM 44.6 °F 36.6 °F 35.6 °F 71% 29.61 in 10.0 mi East 19.6 mph 27.6 mph N/A   Overcast
4:56 PM 42.8 °F 34.5 °F 35.6 °F 76% 29.61 in 10.0 mi East 18.4 mph 25.3 mph N/A   Overcast
5:16 PM 42.8 °F 35.4 °F 35.6 °F 76% 29.60 in 10.0 mi East 15.0 mph 24.2 mph N/A   Overcast
5:36 PM 42.8 °F 35.1 °F 35.6 °F 76% 29.59 in 10.0 mi East 16.1 mph 21.9 mph N/A   Overcast
5:56 PM 42.8 °F 35.4 °F 35.6 °F 76% 29.59 in 10.0 mi East 15.0 mph - N/A   Overcast
6:16 PM 42.8 °F 35.8 °F 35.6 °F 76% 29.59 in 10.0 mi East 13.8 mph 23.0 mph N/A   Overcast
6:36 PM 42.8 °F 35.8 °F 35.6 °F 76% 29.58 in 10.0 mi East 13.8 mph 20.7 mph N/A   Overcast
6:56 PM 42.8 °F 34.5 °F 35.6 °F 76% 29.57 in 10.0 mi East 18.4 mph 24.2 mph N/A   Overcast
7:16 PM 42.8 °F 35.1 °F 35.6 °F 76% 29.57 in 10.0 mi East 16.1 mph 25.3 mph N/A   Overcast
7:36 PM 42.8 °F 34.5 °F 33.8 °F 70% 29.56 in 10.0 mi ESE 18.4 mph 23.0 mph N/A   Overcast
7:56 PM 42.8 °F 34.0 °F 33.8 °F 70% 29.55 in 10.0 mi ESE 20.7 mph 27.6 mph N/A   Overcast
8:16 PM 42.8 °F 33.8 °F 33.8 °F 70% 29.56 in 10.0 mi ESE 21.9 mph 28.8 mph N/A   Overcast
8:36 PM 42.8 °F 33.1 °F 33.8 °F 70% 29.55 in 10.0 mi ESE 25.3 mph 33.4 mph N/A   Overcast
8:56 PM 42.8 °F 32.5 °F 33.8 °F 70% 29.54 in 10.0 mi ESE 28.8 mph 34.5 mph N/A   Overcast
9:16 PM 42.8 °F 32.5 °F 33.8 °F 70% 29.54 in 10.0 mi ESE 28.8 mph 34.5 mph N/A   Overcast
9:36 PM 42.8 °F 32.9 °F 33.8 °F 70% 29.54 in 10.0 mi ESE 26.5 mph 36.8 mph N/A   Overcast
9:56 PM 42.8 °F 32.9 °F 33.8 °F 70% 29.54 in 10.0 mi ESE 26.5 mph 36.8 mph N/A   Overcast
10:16 PM 42.8 °F 32.7 °F 33.8 °F 70% 29.55 in 10.0 mi ESE 27.6 mph 38.0 mph N/A   Overcast
10:36 PM 42.8 °F 33.1 °F 32.0 °F 66% 29.56 in 10.0 mi ESE 25.3 mph 36.8 mph N/A   Overcast
10:56 PM 41.0 °F 31.4 °F 33.8 °F 76% 29.57 in 10.0 mi ESE 21.9 mph 29.9 mph N/A   Overcast
11:16 PM 41.0 °F 31.9 °F 32.0 °F 70% 29.57 in 10.0 mi ESE 19.6 mph 27.6 mph N/A   Overcast
11:36 PM 39.2 °F 27.8 °F 32.0 °F 75% 29.55 in 10.0 mi ESE 27.6 mph 33.4 mph N/A   Overcast
11:56 PM 39.2 °F 28.7 °F 32.0 °F 75% 29.55 in 10.0 mi ESE 23.0 mph 34.5 mph N/A   Overcast